Tracking 28790 objects as of 19-Apr-2024
HD Live streaming from Space Station
objects crossing your sky now

SL-3 R/B

Track SL-3 R/B now!
10-day predictions
SL-3 R/B is classified as:


NORAD ID: 14208
Int'l Code: 1983-075B
Perigee: 488.9 km
Apogee: 534.7 km
Inclination: 97.6 °
Period: 94.7 minutes
Semi major axis: 6882 km
RCS: 6.5943 m2 (large)
Launch date: July 24, 1983
Source: Commonwealth of Independent States (former USSR) (CIS)
Launch site: TYURATAM MISSILE AND SPACE COMPLEX (TTMTR)

Note: This is a ROCKET BODY
Your satellite tracking list
Your tracking list is empty




NASA's NSSDC Master Catalog

Two Line Element Set (TLE):
1 14208U 83075B   24110.17656135  .00011798  00000-0  53655-3 0  9993
2 14208  97.5656  89.1899 0033236 141.5115 218.8499 15.20386376225050
Source of the keplerian elements: AFSPC